Location: Forli
(44.2227°N, 12.0407°E)
Time: 01:36:14
(UTC+02:00)

UWE-3 - Visible Passes

Search period start: 19 April 2026 00:00
Search period end: 29 April 2026 00:00
Orbit: 543 x 612 km, 97.9° (Epoch: 17 April)

Date Brightness Start Highest point End Pass type
(mag) Time Alt. Az. Time Alt. Az. Time Alt. Az.
19 Apr ? 03:47:11 10° NNE 03:51:02 49° E 03:51:24 47° ESE visible
19 Apr ? 05:23:41 10° NNW 05:25:54 15° WNW 05:27:41 11° W visible
20 Apr ? 03:51:20 10° NNE 03:55:13 55° E 03:55:43 50° SE visible
20 Apr ? 05:28:06 10° NNW 05:30:01 13° WNW 05:31:56 10° W visible
21 Apr ? 03:55:28 10° NNE 03:59:23 62° E 04:00:01 52° SSE visible
21 Apr ? 05:32:34 10° NW 05:34:08 12° WNW 05:35:41 10° W visible
22 Apr ? 03:59:36 10° NNE 04:03:33 69° ESE 04:04:19 52° SSE visible
22 Apr ? 05:37:10 10° NW 05:38:14 11° WNW 05:39:18 10° WNW visible
23 Apr ? 04:03:45 10° NNE 04:07:42 78° ESE 04:08:37 50° S visible
24 Apr ? 04:07:54 10° NNE 04:11:51 87° ESE 04:12:55 47° S visible
25 Apr ? 04:12:03 10° NNE 04:15:59 84° WNW 04:17:13 43° SSW visible
26 Apr ? 04:16:12 10° N 04:20:07 76° WNW 04:21:30 39° SSW visible
27 Apr ? 04:20:21 10° N 04:24:16 68° WNW 04:25:47 35° SSW visible
28 Apr ? 02:51:43 10° ENE 02:52:44 11° E 02:53:45 10° ESE visible
28 Apr ? 04:24:31 10° N 04:28:23 60° WNW 04:30:04 31° SW visible
